TimeEST,TemperatureF,Dew PointF,Humidity,Sea Level PressureIn,VisibilityMPH,Wind Direction,Wind SpeedMPH,Gust SpeedMPH,PrecipitationIn,Events,Conditions,WindDirDegrees,DateUTC
12:54 AM,45.0,35.1,68,30.00,10.0,SSW,4.6,-,N/A,,Clear,210,2013-11-10 05:54:00
1:54 AM,44.1,35.1,71,29.99,10.0,SW,3.5,-,N/A,,Clear,230,2013-11-10 06:54:00
2:54 AM,41.0,34.0,76,29.98,10.0,Calm,Calm,-,N/A,,Clear,0,2013-11-10 07:54:00
3:54 AM,39.9,34.0,79,29.97,10.0,WSW,3.5,-,N/A,,Clear,240,2013-11-10 08:54:00
4:54 AM,42.1,34.0,73,29.96,10.0,WSW,6.9,-,N/A,,Clear,240,2013-11-10 09:54:00
5:54 AM,42.1,33.1,70,29.96,10.0,WSW,4.6,-,N/A,,Clear,240,2013-11-10 10:54:00
6:54 AM,42.1,33.1,70,29.96,10.0,SW,4.6,-,N/A,,Clear,220,2013-11-10 11:54:00
7:54 AM,46.9,34.0,61,29.97,10.0,WSW,8.1,-,N/A,,Clear,240,2013-11-10 12:54:00
8:54 AM,52.0,34.0,50,29.96,10.0,SW,5.8,-,N/A,,Clear,230,2013-11-10 13:54:00
9:54 AM,61.0,35.1,38,29.93,10.0,WSW,17.3,24.2,N/A,,Clear,250,2013-11-10 14:54:00
10:54 AM,62.1,33.1,34,29.92,10.0,West,19.6,34.5,N/A,,Mostly Cloudy,260,2013-11-10 15:54:00
11:54 AM,60.1,30.9,33,29.91,10.0,West,19.6,29.9,N/A,,Overcast,280,2013-11-10 16:54:00
12:54 PM,59.0,30.9,35,29.91,10.0,WNW,20.7,36.8,N/A,,Overcast,290,2013-11-10 17:54:00
1:54 PM,55.9,30.0,37,29.94,10.0,West,21.9,34.5,N/A,,Overcast,280,2013-11-10 18:54:00
2:54 PM,55.9,28.9,36,29.96,10.0,West,18.4,29.9,N/A,,Scattered Clouds,280,2013-11-10 19:54:00
3:54 PM,55.0,28.9,37,29.99,10.0,WNW,13.8,-,N/A,,Mostly Cloudy,290,2013-11-10 20:54:00
4:54 PM,54.0,27.0,35,30.02,10.0,NW,10.4,17.3,N/A,,Overcast,310,2013-11-10 21:54:00
5:54 PM,53.1,27.0,37,30.06,10.0,WNW,17.3,24.2,N/A,,Overcast,290,2013-11-10 22:54:00
6:54 PM,52.0,26.1,37,30.08,10.0,West,17.3,27.6,N/A,,Overcast,280,2013-11-10 23:54:00
7:54 PM,51.1,26.1,38,30.09,10.0,West,11.5,23.0,N/A,,Scattered Clouds,270,2013-11-11 00:54:00
8:54 PM,50.0,27.0,41,30.11,10.0,West,11.5,20.7,N/A,,Overcast,270,2013-11-11 01:54:00
9:54 PM,48.0,27.0,44,30.12,10.0,West,11.5,-,N/A,,Clear,280,2013-11-11 02:54:00
10:54 PM,48.0,28.0,46,30.13,10.0,West,8.1,-,N/A,,Overcast,280,2013-11-11 03:54:00
11:54 PM,48.0,28.0,46,30.14,10.0,West,10.4,-,N/A,,Partly Cloudy,270,2013-11-11 04:54:00